This is the latest recevied weather packets stored in our database for station/object K7YVO. If no packets are shown the sender has not sent any weather packets the latest 10 day(s).
| Time | Temp. | Humidity | Pressure | Rain* | Wind** | Luminosity | Snow |
|---|---|---|---|---|---|---|---|
| 1777687651 | 20° C | 60% | 1016.6 hPa | 0 mm | - | 40 W/m² | - |
| 1777687348 | 20.56° C | 59% | 1016.6 hPa | 0 mm | - | 38 W/m² | - |
| 1777687047 | 20.56° C | 58% | 1016.5 hPa | 0 mm | - | 39 W/m² | - |
| 1777686742 | 20.56° C | 58% | 1016.4 hPa | 0 mm | - | 45 W/m² | - |
| 1777686440 | 20.56° C | 58% | 1016.5 hPa | 0 mm | - | 48 W/m² | - |
| 1777686137 | 21.11° C | 58% | 1016.7 hPa | 0 mm | - | 57 W/m² | - |
| 1777685833 | 21.11° C | 57% | 1016.5 hPa | 0 mm | - | 59 W/m² | - |
| 1777685528 | 20.56° C | 57% | 1016.5 hPa | 0 mm | - | 58 W/m² | - |
| 1777685226 | 20.56° C | 58% | 1016.6 hPa | 0 mm | - | 56 W/m² | - |
| 1777684924 | 21.11° C | 57% | 1016.4 hPa | 0 mm | - | 55 W/m² | - |
| 1777684620 | 21.11° C | 57% | 1016.6 hPa | 0 mm | - | 63 W/m² | - |
| 1777684316 | 21.11° C | 57% | 1016.5 hPa | 0 mm | - | 73 W/m² | - |
| 1777684014 | 21.11° C | 56% | 1016.6 hPa | 0 mm | - | 71 W/m² | - |
| 1777683710 | 21.11° C | 57% | 1016.5 hPa | 0 mm | - | 69 W/m² | - |
| 1777683407 | 21.11° C | 56% | 1016.6 hPa | 0 mm | - | 81 W/m² | - |
| 1777683105 | 21.11° C | 57% | 1016.6 hPa | 0 mm | - | 88 W/m² | - |
| 1777682801 | 21.67° C | 56% | 1016.7 hPa | 0 mm | - | 104 W/m² | - |
| 1777682497 | 21.67° C | 56% | 1016.5 hPa | 0 mm | - | 172 W/m² | - |
| 1777682196 | 21.67° C | 56% | 1016.6 hPa | 0 mm | - | 249 W/m² | - |
| 1777681893 | 22.78° C | 54% | 1016.5 hPa | 0 mm | - | 237 W/m² | - |
| 1777681588 | 22.22° C | 54% | 1016.4 hPa | 0 mm | - | 364 W/m² | - |
| 1777681286 | 22.22° C | 54% | 1016.5 hPa | 0 mm | - | 291 W/m² | - |
| 1777680984 | 22.78° C | 54% | 1016.4 hPa | 0 mm | - | 261 W/m² | - |
| 1777680681 | 22.78° C | 54% | 1016.5 hPa | 0 mm | - | 283 W/m² | - |
| 1777680379 | 22.22° C | 54% | 1016.5 hPa | 0 mm | - | 342 W/m² | - |
* Rain latest hour (hover to see other rain measurements)
** Current wind speed in m/s (hover to see current wind gust speed)